FW6365 Weather Reports


Display with metric or nautical units.
time (UTC)temp
F
wind
direction
speed
MPH
gust
MPH
rain 1hr
in
rain 24hr
in
rain mn
in
humidity
%
barometer
mb
20260901131545 56 155 2.0 4.0 0.00 0.00 0.00 97 1010.8
20260901131027 56 192 2.0 4.0 0.00 0.00 0.00 97 1010.9
20260901130529 56 152 2.0 5.0 0.00 0.00 0.00 98 1010.9
20260901130052 56 178 2.0 6.0 0.00 0.00 0.00 98 1011.0
20260901125527 56 191 4.0 6.0 0.00 0.00 0.00 98 1010.8
20260901125027 56 173 3.0 5.0 0.00 0.00 0.00 98 1010.9
20260901124550 56 186 2.0 5.0 0.00 0.00 0.00 98 1010.8
20260901124027 55 190 3.0 5.0 0.00 0.00 0.00 98 1010.9
20260901123528 55 165 2.0 5.0 0.00 0.00 0.00 98 1010.8
20260901123056 55 141 3.0 4.0 0.00 0.00 0.00 98 1010.8
20260901122528 54 140 1.0 2.0 0.00 0.00 0.00 98 1010.9
20260901122030 54 153 2.0 3.0 0.00 0.00 0.00 98 1010.9
20260901121556 53 157 1.0 4.0 0.00 0.00 0.00 98 1010.9
20260901121028 53 123 2.0 4.0 0.00 0.00 0.00 98 1010.7
20260901120526 53 178 1.0 4.0 0.00 0.00 0.00 98 1010.7
20260901120100 52 161 1.0 4.0 0.00 0.00 0.00 97 1010.8
20260901115528 53 154 2.0 4.0 0.00 0.00 0.00 98 1010.8
20260901115024 52 248 1.0 3.0 0.00 0.00 0.00 97 1010.6
20260901114550 52 134 1.0 4.0 0.00 0.00 0.00 98 1010.6
20260901114025 52 155 2.0 4.0 0.00 0.00 0.00 98 1010.6
20260901113525 52 126 1.0 2.0 0.00 0.00 0.00 98 1010.5
20260901113045 51 109 1.0 2.0 0.00 0.00 0.00 98 1010.5
20260901112526 51 115 1.0 2.0 0.00 0.00 0.00 98 1010.5
20260901112030 50 153 0.0 1.0 0.00 0.00 0.00 97 1010.5
20260901111602 50 0 0.0 1.0 0.00 0.00 0.00 97 1010.4
20260901111028 51 0 0.0 1.0 0.00 0.00 0.00 97 1010.2
20260901110524 51 0 0.0 1.0 0.00 0.00 0.00 97 1010.1
20260901110049 51 0 0.0 2.0 0.00 0.00 0.00 97 1010.1
20260901105525 51 129 1.0 2.0 0.00 0.00 0.00 98 1010.2
20260901105026 51 129 1.0 2.0 0.00 0.00 0.00 98 1010.2
20260901104549 50 0 0.0 1.0 0.00 0.00 0.00 97 1010.2
20260901104026 50 119 0.0 1.0 0.00 0.00 0.00 97 1010.1
20260901103526 50 119 0.0 1.0 0.00 0.00 0.00 97 1010.1
20260901103053 50 119 1.0 1.0 0.00 0.00 0.00 97 1010.3
20260901102527 50 0 0.0 1.0 0.00 0.00 0.00 97 1010.1
20260901102024 50 119 0.0 1.0 0.00 0.00 0.00 97 1010.0
20260901101549 50 0 0.0 1.0 0.00 0.00 0.00 97 1010.0
20260901101024 50 119 0.0 1.0 0.00 0.00 0.00 97 1010.0
20260901100524 50 119 0.0 1.0 0.00 0.00 0.00 97 1009.9
20260901100054 49 119 0.0 1.0 0.00 0.00 0.00 97 1009.9
20260901095523 49 0 0.0 0.0 0.00 0.00 0.00 96 1009.9
20260901095024 50 0 0.0 0.0 0.00 0.00 0.00 96 1009.8
20260901094545 50 0 0.0 0.0 0.00 0.00 0.00 96 1009.7
20260901094025 50 0 0.0 0.0 0.00 0.00 0.00 96 1009.8
20260901093523 50 0 0.0 1.0 0.00 0.00 0.00 96 1009.8
20260901093052 50 0 0.0 1.0 0.00 0.00 0.00 97 1009.8
20260901092526 50 0 0.0 0.0 0.00 0.00 0.00 96 1009.8
20260901092024 50 0 0.0 0.0 0.00 0.00 0.00 96 1009.8
20260901091550 50 0 0.0 0.0 0.00 0.00 0.00 97 1009.8
20260901091024 50 0 0.0 0.0 0.00 0.00 0.00 96 1009.9
20260901090523 50 0 0.0 0.0 0.00 0.00 0.00 96 1009.9
20260901090050 50 0 0.0 0.0 0.00 0.00 0.00 96 1009.8
20260901085524 50 0 0.0 0.0 0.00 0.00 0.00 97 1009.8
20260901085028 50 0 0.0 0.0 0.00 0.00 0.00 96 1009.9
20260901084540 50 0 0.0 0.0 0.00 0.00 0.00 96 1009.9
20260901084027 51 0 0.0 0.0 0.00 0.00 0.00 96 1009.9
20260901083526 51 0 0.0 0.0 0.00 0.00 0.00 96 1009.8
20260901083053 51 0 0.0 1.0 0.00 0.00 0.00 96 1009.8
20260901082526 51 0 0.0 1.0 0.00 0.00 0.00 96 1009.9
20260901082024 51 0 0.0 1.0 0.00 0.00 0.00 96 1009.8
20260901081548 51 119 0.0 1.0 0.00 0.00 0.00 96 1009.9
20260901081024 51 0 0.0 0.0 0.00 0.00 0.00 95 1009.9
20260901080524 52 0 0.0 0.0 0.00 0.00 0.00 96 1009.7
20260901080048 52 0 0.0 1.0 0.00 0.00 0.00 95 1009.6
20260901075528 52 0 0.0 1.0 0.00 0.00 0.00 95 1009.6
20260901075029 53 119 0.0 1.0 0.00 0.00 0.00 96 1009.6
20260901074552 52 0 0.0 1.0 0.00 0.00 0.00 96 1009.6
20260901074028 53 0 0.0 1.0 0.00 0.00 0.00 96 1009.5
20260901073526 52 0 0.0 0.0 0.00 0.00 0.00 95 1009.5
20260901073051 53 0 0.0 0.0 0.00 0.00 0.00 95 1009.5
20260901072528 53 0 0.0 0.0 0.00 0.00 0.00 95 1009.4
20260901072027 53 0 0.0 0.0 0.00 0.00 0.00 95 1009.6
20260901071551 53 0 0.0 0.0 0.00 0.00 0.00 95 1009.5
20260901071024 53 0 0.0 1.0 0.00 0.00 0.00 95 1009.5
20260901070525 53 0 0.0 1.0 0.00 0.00 0.00 95 1009.6
20260901070100 53 119 0.0 1.0 0.00 0.00 0.00 95 1009.5
20260901065527 54 0 0.0 1.0 0.00 0.00 0.00 95 1009.5
20260901065026 54 119 0.0 1.0 0.00 0.00 0.00 94 1009.4
20260901064552 54 119 0.0 1.0 0.00 0.00 0.00 94 1009.4
20260901064031 54 0 0.0 0.0 0.00 0.00 0.00 95 1009.3
20260901063525 54 0 0.0 0.0 0.00 0.00 0.00 94 1009.2
20260901063104 54 0 0.0 0.0 0.00 0.00 0.00 94 1009.2
20260901062524 54 0 0.0 0.0 0.00 0.00 0.00 93 1009.1
20260901062029 55 0 0.0 0.0 0.00 0.00 0.00 94 1009.1
20260901061559 55 0 0.0 1.0 0.00 0.00 0.00 94 1009.1
20260901061027 55 0 0.0 1.0 0.00 0.00 0.00 93 1009.0
20260901060525 55 119 0.0 1.0 0.00 0.00 0.00 93 1009.1
20260901060100 55 0 0.0 0.0 0.00 0.00 0.00 93 1009.2
20260901055528 56 0 0.0 0.0 0.00 0.00 0.00 93 1009.0
20260901055028 56 0 0.0 0.0 0.00 0.00 0.00 93 1009.0
20260901054551 56 0 0.0 0.0 0.00 0.00 0.00 92 1009.0
20260901054025 56 0 0.0 0.0 0.00 0.00 0.00 92 1009.1
20260901053528 57 0 0.0 0.0 0.00 0.00 0.00 92 1009.2
20260901053104 57 0 0.0 0.0 0.00 0.00 0.00 92 1009.1
20260901052530 57 0 0.0 0.0 0.00 0.00 0.00 91 1009.1
20260901052028 57 0 0.0 0.0 0.00 0.00 0.00 91 1009.2
20260901051551 57 0 0.0 0.0 0.00 0.00 0.00 91 1009.2
20260901051028 57 0 0.0 0.0 0.00 0.00 0.00 90 1009.1
20260901050528 57 0 0.0 1.0 0.00 0.00 0.00 89 1009.2
20260901050050 58 0 0.0 1.0 0.00 0.00 0.00 89 1009.1
20260901045530 58 0 0.0 1.0 0.00 0.00 0.00 89 1009.2
20260901045028 58 0 0.0 0.0 0.00 0.00 0.00 89 1009.2
20260901044559 59 0 0.0 1.0 0.00 0.00 0.00 88 1009.2
20260901044024 59 0 0.0 1.0 0.00 0.00 0.00 88 1009.1
20260901043528 60 0 0.0 1.0 0.00 0.00 0.00 87 1009.0
20260901043059 60 0 0.0 0.0 0.00 0.00 0.00 86 1008.9
20260901042527 60 0 0.0 0.0 0.00 0.00 0.00 85 1008.9
20260901042027 61 0 0.0 0.0 0.00 0.00 0.00 85 1008.9
20260901041550 61 0 0.0 0.0 0.00 0.00 0.00 84 1008.9
20260901041024 61 0 0.0 0.0 0.00 0.00 0.00 83 1008.8
20260901040529 62 0 0.0 0.0 0.00 0.00 0.00 82 1008.7
20260901040055 62 0 0.0 1.0 0.00 0.00 0.00 82 1008.6
20260901035525 63 0 0.0 1.0 0.00 0.00 0.00 82 1008.7
20260901035029 63 0 0.0 1.0 0.00 0.00 0.00 81 1008.6
20260901034552 63 0 0.0 1.0 0.00 0.00 0.00 81 1008.5
20260901034030 64 0 0.0 1.0 0.00 0.00 0.00 80 1008.5
20260901033524 65 42 0.0 1.0 0.00 0.00 0.00 78 1008.3
20260901033050 65 0 0.0 1.0 0.00 0.00 0.00 76 1008.2
20260901032525 66 38 0.0 1.0 0.00 0.00 0.00 76 1008.1
20260901032029 66 0 0.0 0.0 0.00 0.00 0.00 75 1008.2
20260901031547 67 0 0.0 0.0 0.00 0.00 0.00 74 1008.1
20260901031027 67 0 0.0 0.0 0.00 0.00 0.00 73 1008.1
20260901030527 68 0 0.0 1.0 0.00 0.00 0.00 71 1008.0
20260901030054 69 0 0.0 1.0 0.00 0.00 0.00 72 1008.0
20260901025529 70 38 0.0 1.0 0.00 0.00 0.00 70 1007.9
20260901025029 71 0 0.0 1.0 0.00 0.00 0.00 67 1007.9
20260901024554 72 0 0.0 1.0 0.00 0.00 0.00 65 1007.9
20260901024031 73 0 0.0 1.0 0.00 0.00 0.00 63 1007.7
20260901023530 74 0 0.0 1.0 0.00 0.00 0.00 60 1007.6
20260901023048 75 0 0.0 1.0 0.00 0.00 0.00 57 1007.7
20260901022528 77 0 0.0 1.0 0.00 0.00 0.00 54 1007.6
20260901022029 78 0 0.0 2.0 0.00 0.00 0.00 52 1007.7
20260901021606 79 0 0.0 2.0 0.00 0.00 0.00 51 1007.7
20260901021025 79 33 0.0 4.0 0.00 0.00 0.00 50 1007.7
20260901020525 79 38 1.0 4.0 0.00 0.00 0.00 48 1007.7
20260901020107 80 350 1.0 3.0 0.00 0.00 0.00 48 1007.8
20260901015528 80 17 1.0 3.0 0.00 0.00 0.00 48 1007.8
20260901015027 80 351 0.0 5.0 0.00 0.00 0.00 47 1007.8
20260901014549 80 24 1.0 5.0 0.00 0.00 0.00 47 1007.8
20260901014033 80 342 2.0 7.0 0.00 0.00 0.00 47 1007.8
20260901013529 80 40 3.0 8.0 0.00 0.00 0.00 47 1007.8
20260901013054 80 36 3.0 8.0 0.00 0.00 0.00 46 1007.9
20260901012524 80 360 4.0 8.0 0.00 0.00 0.00 46 1007.9
20260901012024 80 14 4.0 7.0 0.00 0.00 0.00 46 1007.9
20260901011550 81 42 2.0 10.0 0.00 0.00 0.00 46 1008.1
20260901011028 81 76 1.0 10.0 0.00 0.00 0.00 46 1008.0
20260901010528 81 28 3.0 10.0 0.00 0.00 0.00 45 1008.1
20260901010051 80 329 2.0 7.0 0.00 0.00 0.00 47 1008.2
20260901005529 80 335 3.0 7.0 0.00 0.00 0.00 47 1008.2
20260901005028 80 20 2.0 8.0 0.00 0.00 0.00 48 1008.3
20260901004604 80 324 3.0 8.0 0.00 0.00 0.00 48 1008.3
20260901004028 80 331 2.0 8.0 0.00 0.00 0.00 48 1008.3
20260901003529 80 36 1.0 8.0 0.00 0.00 0.00 47 1008.3
20260901003054 80 86 2.0 5.0 0.00 0.00 0.00 46 1008.3
20260901002527 80 10 2.0 8.0 0.00 0.00 0.00 46 1008.3
20260901002029 80 92 3.0 8.0 0.00 0.00 0.00 47 1008.3
20260901001550 80 325 1.0 9.0 0.00 0.00 0.00 49 1008.4
20260901001028 79 19 5.0 9.0 0.00 0.00 0.00 47 1008.4
20260901000528 80 352 4.0 7.0 0.00 0.00 0.00 49 1008.4
20260901000105 80 75 2.0 12.0 0.00 0.00 0.00 47 1008.6
20260831235529 79 88 3.0 12.0 0.00 0.00 0.00 48 1008.5
20260831235027 79 292 4.0 8.0 0.00 0.00 0.00 48 1008.6
20260831234545 79 74 4.0 8.0 0.00 0.00 0.00 50 1008.7
20260831234028 78 325 3.0 9.0 0.00 0.00 0.00 50 1008.7
20260831233532 77 318 4.0 9.0 0.00 0.00 0.00 51 1008.7
20260831233050 78 307 3.0 9.0 0.00 0.00 0.00 51 1008.7
20260831232524 79 304 4.0 9.0 0.00 0.00 0.00 48 1008.7
20260831232024 79 347 1.0 9.0 0.00 0.00 0.00 49 1008.8
20260831231552 79 348 3.0 8.0 0.00 0.00 0.00 49 1008.9
20260831231025 79 348 2.0 11.0 0.00 0.00 0.00 50 1008.9
20260831230529 79 50 4.0 11.0 0.00 0.00 0.00 48 1009.0
20260831230058 79 52 6.0 11.0 0.00 0.00 0.00 48 1009.1
20260831225529 78 355 3.0 9.0 0.00 0.00 0.00 51 1009.1
20260831225032 78 5 4.0 10.0 0.00 0.00 0.00 52 1009.1
20260831224553 78 319 5.0 10.0 0.00 0.00 0.00 51 1009.1
20260831224025 77 344 6.0 13.0 0.00 0.00 0.00 51 1009.2
20260831223530 77 76 4.0 13.0 0.00 0.00 0.00 52 1009.1
20260831223056 77 309 7.0 13.0 0.00 0.00 0.00 52 1009.1
20260831222527 78 335 3.0 11.0 0.00 0.00 0.00 52 1009.3
20260831222030 77 28 7.0 11.0 0.00 0.00 0.00 52 1009.4
20260831221558 77 5 4.0 11.0 0.00 0.00 0.00 55 1009.4
20260831221033 77 56 5.0 14.0 0.00 0.00 0.00 54 1009.5
20260831220527 76 9 8.0 14.0 0.00 0.00 0.00 54 1009.7
20260831220057 76 275 5.0 9.0 0.00 0.00 0.00 56 1009.7
20260831215524 76 28 5.0 11.0 0.00 0.00 0.00 55 1009.8
20260831215025 76 319 4.0 12.0 0.00 0.00 0.00 57 1009.9
20260831214552 75 338 6.0 18.0 0.00 0.00 0.00 57 1010.0
20260831214028 75 355 8.0 18.0 0.00 0.00 0.00 56 1010.0
20260831213529 76 9 7.0 13.0 0.00 0.00 0.00 55 1010.2
20260831213055 76 331 6.0 11.0 0.00 0.00 0.00 56 1010.2
20260831212531 75 360 4.0 9.0 0.00 0.00 0.00 57 1010.3
20260831212031 75 329 5.0 10.0 0.00 0.00 0.00 57 1010.4
20260831211553 74 23 3.0 11.0 0.00 0.00 0.00 59 1010.4
20260831211027 74 32 4.0 14.0 0.00 0.00 0.00 58 1010.4
20260831210526 74 323 5.0 14.0 0.00 0.00 0.00 56 1010.5
20260831210051 75 10 5.0 13.0 0.00 0.00 0.00 57 1010.6
20260831205524 75 74 2.0 15.0 0.00 0.00 0.00 56 1010.5
20260831205026 74 350 5.0 15.0 0.00 0.00 0.00 58 1010.8
20260831204550 74 349 9.0 15.0 0.00 0.00 0.00 58 1010.8
20260831204034 74 22 6.0 12.0 0.00 0.00 0.00 59 1010.8
20260831203530 73 33 4.0 14.0 0.00 0.00 0.00 60 1010.8
20260831203052 73 30 8.0 14.0 0.00 0.00 0.00 60 1010.9
20260831202528 73 325 6.0 13.0 0.00 0.00 0.00 60 1010.8
20260831202029 73 331 3.0 11.0 0.00 0.00 0.00 60 1010.9
20260831201550 72 351 7.0 11.0 0.00 0.00 0.00 59 1011.0
20260831201026 72 50 4.0 13.0 0.00 0.00 0.00 63 1011.2
20260831200525 72 108 7.0 13.0 0.00 0.00 0.00 62 1011.3
20260831200108 71 17 7.0 13.0 0.00 0.00 0.00 62 1011.4
20260831195528 71 350 8.0 16.0 0.00 0.00 0.00 62 1011.5
20260831195028 71 19 7.0 16.0 0.00 0.00 0.00 62 1011.6
20260831194615 71 333 4.0 11.0 0.00 0.00 0.00 63 1011.5
20260831194027 70 34 5.0 17.0 0.00 0.00 0.00 64 1011.7
20260831193528 70 329 7.0 17.0 0.00 0.00 0.00 64 1011.8
20260831193053 71 323 8.0 13.0 0.00 0.00 0.00 63 1011.9
20260831192524 70 331 7.0 14.0 0.00 0.00 0.00 64 1012.0
20260831192028 71 348 5.0 14.0 0.00 0.00 0.00 65 1012.0
20260831191553 70 151 2.0 15.0 0.00 0.00 0.00 67 1012.0
20260831191024 69 318 5.0 15.0 0.00 0.00 0.00 66 1012.1
20260831190524 69 316 7.0 15.0 0.00 0.00 0.00 68 1012.1
20260831185524 68 331 8.0 14.0 0.00 0.00 0.00 68 1012.3
20260831185023 68 308 9.0 15.0 0.00 0.00 0.00 68 1012.3
20260831184559 68 346 6.0 15.0 0.00 0.00 0.00 71 1012.4
20260831184028 68 341 5.0 11.0 0.00 0.00 0.00 70 1012.4
20260831183527 68 105 5.0 13.0 0.00 0.00 0.00 70 1012.4
20260831183051 68 117 5.0 13.0 0.00 0.00 0.00 71 1012.3
20260831182524 68 340 6.0 13.0 0.00 0.00 0.00 70 1012.5
20260831182025 67 67 5.0 16.0 0.00 0.00 0.00 71 1012.6
20260831181551 67 71 6.0 16.0 0.00 0.00 0.00 73 1012.6
20260831181028 67 18 4.0 14.0 0.00 0.00 0.00 73 1012.6
20260831180528 67 23 7.0 14.0 0.00 0.00 0.00 72 1012.7
20260831180050 67 342 4.0 13.0 0.00 0.00 0.00 73 1012.8
20260831175527 67 323 6.0 13.0 0.00 0.00 0.00 73 1012.8
20260831175029 67 49 6.0 14.0 0.00 0.00 0.00 72 1012.7
20260831174554 66 311 4.0 14.0 0.00 0.00 0.00 74 1012.8
20260831174028 66 21 6.0 13.0 0.00 0.00 0.00 74 1012.9
20260831173524 66 346 4.0 13.0 0.00 0.00 0.00 76 1012.9
20260831173053 65 96 4.0 13.0 0.00 0.00 0.00 76 1013.0
20260831172524 65 344 3.0 14.0 0.00 0.00 0.00 78 1013.1
20260831172028 64 345 6.0 14.0 0.00 0.00 0.00 77 1013.1
20260831171548 64 320 4.0 13.0 0.00 0.00 0.00 77 1013.1
20260831171028 64 57 6.0 13.0 0.00 0.00 0.00 77 1013.2
20260831170525 64 341 4.0 13.0 0.00 0.00 0.00 78 1013.2
20260831170047 63 67 5.0 13.0 0.00 0.00 0.00 80 1013.1
20260831165528 63 337 8.0 13.0 0.00 0.00 0.00 80 1013.2
20260831165027 63 339 4.0 12.0 0.00 0.00 0.00 82 1013.2
20260831164600 62 90 5.0 11.0 0.00 0.00 0.00 82 1013.3
20260831164024 63 19 5.0 11.0 0.00 0.00 0.00 82 1013.3
20260831163527 62 323 4.0 9.0 0.00 0.00 0.00 84 1013.4
20260831163052 62 9 4.0 9.0 0.00 0.00 0.00 86 1013.6
20260831162533 62 36 4.0 11.0 0.00 0.00 0.00 86 1013.6
20260831162028 61 343 4.0 11.0 0.00 0.00 0.00 88 1013.5
20260831161549 61 360 4.0 14.0 0.00 0.00 0.00 89 1013.7
20260831161030 60 35 4.0 14.0 0.00 0.00 0.00 91 1013.7
20260831160528 60 9 3.0 9.0 0.00 0.00 0.00 94 1013.6
20260831160103 59 338 3.0 9.0 0.00 0.00 0.00 95 1013.7
20260831155530 58 23 4.0 9.0 0.00 0.00 0.00 96 1013.8
20260831155030 58 328 2.0 9.0 0.00 0.00 0.00 97 1013.8
20260831154656 57 13 2.0 8.0 0.00 0.00 0.00 98 1013.9
20260831154025 57 347 2.0 5.0 0.00 0.00 0.00 98 1013.9
20260831153528 56 13 2.0 5.0 0.00 0.00 0.00 99 1014.0
20260831153050 55 333 2.0 5.0 0.00 0.00 0.00 99 1013.9
20260831152524 54 327 1.0 2.0 0.00 0.00 0.00 98 1014.0
20260831152025 53 11 0.0 2.0 0.00 0.00 0.00 98 1014.0
20260831151556 51 20 0.0 1.0 0.00 0.00 0.00 98 1014.1
20260831151023 50 0 0.0 0.0 0.00 0.00 0.00 98 1014.1
20260831150525 50 0 0.0 0.0 0.00 0.00 0.00 98 1014.1
20260831150055 50 0 0.0 0.0 0.00 0.00 0.00 98 1014.3
20260831145530 49 0 0.0 0.0 0.00 0.00 0.00 98 1014.3
20260831145024 48 0 0.0 0.0 0.00 0.00 0.00 98 1014.2
20260831144547 48 0 0.0 0.0 0.00 0.00 0.00 98 1014.2
20260831144024 47 0 0.0 0.0 0.00 0.00 0.00 98 1014.3
20260831143526 46 0 0.0 0.0 0.00 0.00 0.00 98 1014.4
20260831143109 45 0 0.0 0.0 0.00 0.00 0.00 98 1014.2
20260831142527 45 0 0.0 0.0 0.00 0.00 0.00 98 1014.2
20260831142023 45 0 0.0 0.0 0.00 0.00 0.00 98 1014.1
20260831141610 45 0 0.0 0.0 0.00 0.00 0.00 98 1014.2
20260831141024 45 0 0.0 0.0 0.00 0.00 0.00 98 1014.3
20260831140527 45 0 0.0 0.0 0.00 0.00 0.00 98 1014.3
20260831140055 44 0 0.0 0.0 0.00 0.00 0.00 97 1014.1
20260831135528 44 0 0.0 0.0 0.00 0.00 0.00 97 1014.2
20260831135028 45 0 0.0 0.0 0.00 0.00 0.00 97 1014.2
20260831134546 45 0 0.0 0.0 0.00 0.00 0.00 97 1014.2
20260831134026 45 0 0.0 0.0 0.00 0.00 0.00 97 1014.2
20260831133527 45 0 0.0 0.0 0.00 0.00 0.00 97 1014.2
20260831133050 45 0 0.0 0.0 0.00 0.00 0.00 97 1014.2
20260831132524 45 0 0.0 1.0 0.00 0.00 0.00 98 1014.3
20260831132028 45 0 0.0 1.0 0.00 0.00 0.00 98 1014.2